{"data":{"norad_id":48684,"intl_designator":"2021-044AY","name":"STARLINK-2741","alt_names":[],"object_type":"PAYLOAD","status":"ACTIVE","operator":null,"country":"US","launch_date":"2021-05-26","launch_site_code":"AFETR","launch_vehicle":null,"mission":null,"orbit_class":"UNKNOWN","rcs_meters":null,"size_class":null,"mass_kg":null,"dimensions":null,"purposes":["comms"],"wikipedia_slug":null,"has_3d_model":false,"image_url":null,"decayed_at":null,"tle_current":{"epoch":"2026-09-19T12:49:11.429184Z","epoch_age_seconds":124718,"freshness":"FRESH","line1":"1 48684U 21044AY  26262.53416006  .00004905  00000+0  16955-3 0  9990","line2":"2 48684  53.1585 255.8015 0001086  89.6415 270.4711 15.31733883294035","mean_motion":15.31733883,"eccentricity":0.0001086,"inclination_deg":53.1585,"raan_deg":255.8015,"arg_perigee_deg":89.6415,"mean_anomaly_deg":270.4711,"bstar":0.00016955,"rev_number":29403,"period_min":94.01110832514,"perigee_km":469.89521655476,"apogee_km":471.38277070058,"semimajor_km":6848.7759936277,"source":"CELESTRAK","updated_at":"2026-09-20T09:00:39.243864Z"}}}